Location: Marseilles
(40.7010°N, 83.3930°W)
Time: 17:42:47
(UTC-04:00)

Cosmos 1459 Rocket - Visible Passes

Search period start: 21 August 2017 00:00
Search period end: 31 August 2017 00:00
Orbit: 936 x 1001 km, 83.0° (Epoch: 20 August)

Date Brightness Start Highest point End Pass type
(mag) Time Alt. Az. Time Alt. Az. Time Alt. Az.
21 Aug 6.0 03:28:43 12° ESE 03:32:20 20° E 03:36:31 10° NE visible
21 Aug 4.0 05:13:16 23° SSW 05:17:00 58° W 05:23:00 10° N visible
22 Aug 5.2 03:52:30 23° SE 03:55:23 35° E 04:00:48 10° NNE visible
22 Aug 4.7 05:37:03 19° SW 05:40:34 33° WNW 05:45:59 10° NNW visible
23 Aug 4.2 04:16:16 37° SSE 04:18:35 62° E 04:24:34 10° NNE visible
23 Aug 5.4 06:00:48 12° WSW 06:04:18 19° WNW 06:08:29 10° NNW visible
24 Aug 6.2 02:55:26 13° ESE 02:57:30 15° E 03:00:39 10° NE visible
24 Aug 3.8 04:39:58 45° SSW 04:41:55 76° W 04:48:00 10° N visible
25 Aug 5.5 03:19:07 24° ESE 03:20:29 27° E 03:25:23 10° NNE visible
25 Aug 4.3 05:03:39 35° WSW 05:05:24 43° WNW 05:11:09 10° N visible
26 Aug 4.6 03:42:47 44° ESE 03:43:35 47° E 03:49:21 10° NNE visible
26 Aug 5.0 05:27:19 22° W 05:29:03 25° WNW 05:33:55 10° NNW visible
27 Aug 6.4 02:21:52 10° E 02:22:41 10° ENE 02:23:43 10° ENE visible
27 Aug 3.8 04:06:24 77° SSE 04:06:52 84° E 04:12:56 10° N visible
27 Aug 5.6 05:50:58 12° W 05:52:52 14° WNW 05:55:53 10° NW visible
28 Aug 5.8 02:45:29 20° E 02:45:35 20° E 02:49:50 10° NE visible
28 Aug 4.0 04:30:01 56° W 04:30:17 56° W 04:36:14 10° N visible
29 Aug 5.1 03:09:03 35° E 03:09:03 35° E 03:14:04 10° NNE visible
29 Aug 4.7 04:53:36 32° WNW 04:53:50 32° WNW 04:59:11 10° NNW visible
30 Aug 4.3 03:32:37 58° NE 03:32:37 58° NE 03:37:48 10° NNE visible
30 Aug 5.4 05:17:10 18° WNW 05:17:34 18° WNW 05:21:39 10° NNW visible
